EXALTA-1 (42734 NORAD) Tracking and Keplerian Element Data.

This shows tracking and keplerian element data for the satellite.

Feedback or suggestion? Click here.

Epoch Orbit4666
Epoch Day80.82715772
Epoch Year2018
Argument of Perigee238.4408
Mean Anonmoly121.6178
Mean Motion15.68637889
Decay Rate0.00030718
L11 42734U 98067MP 18080.82715772 .00030718 00000-0 26855-3 0 9994
L22 42734 51.6339 79.2955 0004208 238.4408 121.6178 15.68637889 46668

Live tracking and technical data element details for EXALTA-1 (NORAD 42734). EXALTA-1 can be tracked NOW for your location showing map with azimuth and elevation plus other details from your city location.

Tracking and technical details about the satellite: track the satellite on the map from your city or location and see movement details for azimuth, elevation, latitude, longitude, range, height, and movement on the map or in text.

Es'hailsat 2 (coming in 2018)

IsCatalogInMostPopularTable: catalog: 42734, numindb: 58
Update: records affected: 1

GetName: 42734 EXALTA-1

Hit Count: updated at: Thu, 22 Mar 2018 13:39:32 GMT